Wind_Speed
5 3 3 1 1 2 2 2 2 3 3 4 4 3 3 4 1 2 2 3 5 6 6 7 7 7 7 6 5 4 5 5 6 1 6 12 8 19 14 14 17 15 15 18 20
5 4 3 3 3 2 1 2 2 3 4 5 5 4 4 4 3 2 2 4 5 6 6 7 7 7 7 6 5 4 4 9 6 4 5 10 11 12 15 13 18 24 27 23 21
7 6 5 3 4 4 3 2 2 3 3 4 4 4 4 6 4 2 3 4 5 5 6 6 6 6 6 7 7 5 4 4 0 5 8 11 15 16 16 13 19 20 22 22 22
8 7 6 5 4 4 4 4 3 3 3 3 3 4 3 5 5 5 5 4 5 6 5 5 5 6 6 6 7 3 3 1 6 9 12 13 15 16 17 18 19 21 21 20 21
9 8 7 7 6 5 5 4 4 4 3 3 4 3 4 4 3 3 4 5 5 4 5 5 6 6 6 7 7 5 5 4 9 11 12 16 15 16 18 20 19 19 20 20 19
10 10 9 7 7 6 5 5 4 4 3 4 4 4 5 6 5 5 5 6 6 5 5 4 6 7 6 6 7 5 6 6 10 13 14 17 14 18 19 21 20 20 19 20 20
11 10 9 9 8 7 7 5 5 5 4 4 5 5 4 6 7 6 6 6 6 5 5 4 5 6 6 5 6 5 9 6 11 13 13 16 14 14 17 21 20 19 22 21 22
13 11 11 10 9 8 8 7 7 5 4 5 5 6 5 5 4 5 6 6 6 4 5 4 4 5 5 5 5 8 6 10 12 10 11 13 9 14 14 19 19 20 22 24 23
15 12 12 12 11 10 10 9 7 7 6 6 5 7 7 7 7 7 7 7 5 4 5 5 4 4 5 5 7 9 7 10 12 9 8 10 7 14 13 17 18 19 19 23 23
15 14 13 13 11 10 11 10 9 8 7 6 7 6 7 6 8 8 7 7 6 5 4 5 4 4 4 5 2 6 11 12 11 12 10 9 8 11 13 17 18 18 19 21 23
18 16 14 14 13 13 11 11 12 7 8 9 8 7 7 6 6 7 7 7 6 5 5 5 5 5 4 4 3 6 12 14 13 18 11 10 5 9 10 14 16 19 20 20 22
20 18 16 16 15 14 13 15 12 9 6 9 10 8 8 7 7 7 7 6 6 6 5 6 8 5 5 6 6 6 13 14 15 15 13 13 5 7 11 14 14 16 18 19 20
23 20 19 16 15 17 15 13 12 9 8 10 11 10 8 8 8 8 7 7 6 7 6 7 8 7 6 8 9 8 10 15 20 18 11 16 5 7 12 16 13 15 18 20 22
24 23 20 17 18 18 16 15 13 11 7 9 12 10 10 11 10 9 8 7 6 5 5 6 5 6 7 9 10 11 7 15 20 16 5 9 7 9 12 20 16 15 17 19 21
25 25 23 20 18 17 17 15 14 12 2 7 12 8 8 9 5 5 8 7 6 6 6 7 9 8 9 9 9 11 13 11 18 11 12 4 6 5 10 11 16 16 15 18 20
27 26 25 23 21 18 17 17 15 8 7 9 9 8 8 8 8 5 4 5 5 7 8 8 9 8 7 8 9 11 13 11 8 5 3 5 5 4 7 13 12 13 14 16 20
28 28 26 24 22 20 19 19 13 9 10 9 12 11 9 7 7 5 4 5 6 5 3 7 9 11 8 7 7 6 10 4 4 3 4 7 9 5 11 12 9 10 12 15 19
31 29 28 26 24 23 22 24 13 11 18 9 12 14 12 10 8 5 4 6 8 9 9 5 5 3 3 5 7 8 3 1 4 2 5 18 7 5 10 10 8 8 10 13 16
32 31 30 28 27 26 27 29 20 15 22 17 17 17 15 13 7 4 4 9 10 8 5 3 3 3 7 8 6 2 1 2 4 4 4 5 7 11 8 9 8 8 10 12 16
33 33 32 30 30 29 32 34 23 24 14 24 23 16 18 14 10 4 2 3 5 4 7 4 6 6 8 8 8 7 4 1 1 2 4 7 10 9 11 11 8 9 10 13 15
37 37 36 34 33 35 42 41 35 22 22 21 26 22 17 15 12 7 5 6 10 8 7 9 8 7 7 5 7 6 6 4 3 3 4 2 5 7 10 13 12 10 10 12 14
40 42 39 38 38 44 46 42 39 36 26 27 26 26 21 18 14 11 8 5 9 10 6 7 6 8 10 13 13 12 11 8 5 4 5 4 13 9 9 15 13 12 11 11 11
51 49 39 41 46 49 46 45 40 39 34 27 28 26 24 23 17 14 14 9 8 17 10 9 7 4 4 6 9 11 8 11 12 10 12 4 9 10 16 26 19 14 12 11 10
48 49 49 43 51 51 50 46 43 40 38 31 31 28 25 24 22 16 13 6 8 12 16 18 17 14 8 6 10 13 14 13 15 11 15 29 36 26 15 18 21 20 15 12 8
55 46 56 47 58 50 48 47 47 44 41 39 36 34 30 27 24 22 19 10 12 17 17 15 19 21 20 20 22 23 22 22 26 28 29 36 38 21 21 23 26 24 19 10 4
44 54 53 57 43 57 52 53 48 47 45 44 38 32 31 31 28 28 25 27 25 16 17 14 22 24 27 25 26 28 25 27 31 34 38 39 40 23 11 14 16 16 12 7 3
48 46 54 45 51 47 51 55 49 45 46 46 38 34 34 32 32 26 23 29 32 20 18 21 17 14 11 16 14 22 24 19 24 25 26 31 21 14 12 15 13 13 11 9 5
Wind_Direction
223 217 238 257 246 226 180 208 206 225 221 236 231 230 229 231 221 265 309 336 340 346 351 4 2 12 1 14 8 355 82 248 261 181 264 311 327 314 337 315 318 313 306 298 292
212 207 226 234 256 268 223 186 195 216 211 215 231 219 210 209 200 251 308 326 325 330 345 356 360 2 353 1 359 333 185 245 275 282 303 326 338 332 332 327 316 332 325 321 316
210 209 221 223 230 233 218 219 212 225 229 222 209 222 210 208 200 284 302 307 310 318 334 355 2 347 341 348 351 342 286 265 320 34 9 356 345 345 341 345 331 321 319 323 323
215 214 221 223 230 244 233 216 212 202 206 214 212 202 215 221 234 253 284 298 306 316 327 349 352 338 341 349 354 13 333 328 60 44 19 4 354 344 355 347 339 331 328 325 324
226 221 224 229 228 230 238 238 221 222 217 220 231 215 213 211 217 250 281 298 303 314 321 342 347 345 343 349 358 7 354 15 56 42 22 7 359 1 358 353 341 333 330 331 327
238 231 227 229 239 225 226 230 226 238 237 242 241 225 230 237 265 272 283 295 303 315 316 346 342 341 332 342 352 357 352 13 43 35 22 7 5 4 1 350 338 336 335 332 332
235 243 237 224 224 228 228 222 226 230 234 243 255 252 242 268 265 258 273 285 293 311 316 342 343 338 333 338 345 329 353 333 22 18 15 7 0 3 358 348 344 344 346 339 333
236 232 235 230 227 227 229 222 222 230 240 248 246 257 254 260 246 257 271 281 288 309 316 337 341 330 343 342 331 5 329 8 333 354 9 4 350 359 349 349 356 356 348 341 340
242 238 235 233 227 227 227 227 220 230 241 250 262 261 257 259 259 265 271 278 290 304 315 326 325 327 345 344 11 0 333 312 313 324 341 357 346 338 347 350 354 355 346 339 339
242 241 236 236 234 237 234 233 226 227 241 252 258 258 257 260 256 259 268 280 289 299 312 317 310 309 336 357 305 314 329 296 313 311 322 325 351 343 325 344 349 350 350 341 339
234 237 235 234 230 231 232 234 236 239 250 252 263 257 269 261 251 258 270 280 286 294 310 307 307 320 334 330 311 342 318 324 326 306 313 326 321 346 340 334 348 353 350 345 342
232 232 234 234 229 228 229 232 237 236 248 252 254 255 258 260 258 264 272 278 285 291 301 293 296 294 302 301 309 347 330 324 326 323 306 316 257 6 341 336 344 349 350 353 351
233 231 229 230 231 229 225 231 237 235 237 250 248 247 250 253 256 260 262 272 283 290 292 293 297 290 288 296 311 321 336 332 329 325 299 326 282 299 350 338 338 348 351 357 356
232 234 231 224 225 226 222 227 226 226 234 247 236 231 242 244 249 249 255 261 272 284 294 297 293 286 293 294 304 305 321 328 330 326 304 321 299 291 314 334 344 347 353 358 357
230 231 229 225 220 221 222 225 218 213 272 227 223 220 214 212 220 235 245 257 270 280 288 291 294 289 289 298 304 308 314 327 321 309 307 295 279 262 300 323 308 335 351 358 359
230 231 229 224 218 215 217 216 213 211 257 207 189 205 209 207 213 217 242 255 278 284 290 289 289 288 293 291 296 309 313 333 332 313 318 249 273 267 294 326 319 334 352 1 0
228 229 230 225 220 210 207 208 199 215 227 216 197 191 190 194 205 216 239 273 283 307 301 307 288 283 282 280 297 311 332 320 351 13 230 304 285 275 305 343 351 339 350 360 2
226 225 226 227 220 214 205 203 210 211 220 213 189 183 176 180 188 197 258 293 294 284 286 286 293 286 278 269 294 312 344 59 225 286 280 294 247 306 318 334 0 351 353 359 1
228 224 222 222 220 215 210 206 216 212 216 210 183 184 176 184 193 186 286 292 284 272 237 274 259 290 272 286 294 302 302 276 268 292 314 264 292 295 316 335 2 2 358 1 4
230 227 223 219 219 216 216 218 217 214 210 212 209 205 196 193 194 205 247 276 296 275 246 262 282 282 278 276 265 255 269 280 281 29 315 300 294 277 335 340 357 2 357 4 4
226 225 220 217 215 218 221 221 218 213 215 216 215 214 209 207 205 214 224 278 265 267 267 265 261 276 284 261 269 259 242 221 234 224 172 296 301 295 321 339 345 355 349 355 2
224 221 220 216 214 220 227 226 224 219 219 218 219 223 220 222 220 216 245 276 271 242 262 261 271 267 273 273 268 262 256 237 212 213 215 243 280 289 318 334 333 338 342 340 358
221 220 219 218 220 223 227 226 227 225 222 219 219 219 227 229 223 234 247 269 291 256 257 252 249 262 273 265 252 255 262 248 241 253 243 201 260 295 317 315 316 318 323 329 338
220 215 218 217 223 226 228 229 227 227 226 224 229 229 230 224 229 230 236 246 292 274 258 246 248 241 249 278 286 283 285 277 247 244 260 258 285 292 303 305 304 301 302 303 320
220 215 222 223 223 225 231 232 230 227 225 227 228 228 234 228 225 227 235 227 265 280 264 254 256 257 259 265 273 276 275 274 267 275 263 284 284 295 298 291 279 283 284 264 274
229 225 225 228 227 228 227 229 229 229 228 224 226 229 240 233 239 231 236 254 273 270 248 270 264 265 269 270 276 277 270 268 270 270 271 277 285 297 296 290 285 276 268 261 257
232 233 228 227 228 224 229 232 232 231 229 227 232 240 236 226 233 238 251 257 275 263 266 264 283 266 272 275 278 280 280 267 271 276 284 279 304 288 265 277 273 270 265 265 263
Height
3139 3139 3140 3140 3140 3140 3139 3139 3140 3141 3142 3142 3141 3141 3141 3142 3141 3142 3142 3142 3142 3142 3141 3140 3141 3139 3139 3138 3138 3138 3140 3140 3138 3137 3137 3134 3134 3129 3132 3130 3128 3127 3127 3125 3123
3138 3138 3139 3140 3141 3141 3140 3139 3139 3140 3140 3140 3141 3141 3141 3141 3141 3142 3142 3142 3142 3142 3141 3140 3140 3139 3138 3138 3137 3137 3138 3137 3136 3135 3134 3132 3131 3131 3130 3127 3125 3121 3118 3118 3116
3137 3137 3138 3139 3139 3139 3139 3140 3140 3140 3141 3141 3139 3141 3140 3141 3142 3142 3142 3142 3142 3141 3141 3140 3140 3140 3139 3138 3137 3136 3136 3135 3134 3133 3132 3130 3128 3128 3127 3125 3123 3122 3118 3115 3112
3136 3136 3137 3138 3139 3139 3139 3139 3139 3139 3140 3140 3140 3139 3140 3141 3143 3140 3141 3141 3141 3141 3140 3139 3140 3140 3138 3137 3137 3136 3135 3135 3132 3130 3130 3128 3127 3126 3125 3125 3121 3118 3116 3113 3109
3135 3135 3136 3137 3138 3138 3139 3140 3139 3139 3140 3140 3140 3139 3140 3141 3141 3141 3141 3141 3141 3140 3140 3139 3139 3138 3138 3136 3136 3135 3135 3134 3130 3128 3128 3127 3126 3125 3124 3121 3119 3116 3113 3111 3107
3134 3134 3136 3136 3138 3137 3138 3139 3139 3140 3140 3140 3140 3139 3140 3141 3140 3140 3140 3140 3140 3140 3139 3139 3138 3137 3137 3136 3136 3135 3135 3134 3129 3127 3126 3125 3124 3122 3121 3119 3116 3113 3110 3108 3104
3130 3134 3135 3134 3135 3137 3138 3138 3138 3138 3138 3138 3140 3139 3139 3140 3139 3139 3139 3139 3140 3140 3139 3138 3138 3138 3137 3136 3135 3135 3135 3133 3128 3126 3125 3123 3123 3121 3118 3117 3113 3110 3107 3104 3101
3128 3129 3131 3133 3134 3136 3137 3137 3137 3137 3138 3138 3137 3138 3138 3138 3138 3138 3139 3139 3138 3138 3139 3138 3138 3137 3137 3136 3135 3134 3134 3131 3129 3127 3125 3123 3121 3119 3118 3115 3111 3107 3105 3101 3098
3127 3127 3129 3131 3131 3134 3136 3136 3135 3135 3137 3137 3138 3137 3137 3138 3138 3138 3138 3138 3138 3138 3138 3138 3138 3137 3137 3135 3134 3133 3134 3132 3129 3127 3124 3123 3120 3117 3116 3113 3110 3106 3104 3100 3096
3123 3126 3127 3128 3129 3133 3134 3135 3134 3134 3136 3135 3137 3138 3137 3137 3137 3137 3137 3138 3138 3137 3137 3138 3137 3136 3135 3134 3135 3134 3133 3132 3130 3127 3123 3121 3118 3116 3113 3111 3109 3105 3102 3099 3094
3119 3123 3123 3125 3126 3130 3132 3134 3137 3136 3134 3135 3135 3135 3135 3135 3135 3136 3136 3136 3137 3137 3136 3136 3137 3136 3135 3134 3134 3132 3131 3130 3129 3124 3122 3119 3116 3114 3112 3110 3107 3103 3100 3097 3093
3115 3118 3120 3122 3124 3126 3130 3132 3132 3133 3131 3133 3133 3133 3133 3134 3134 3134 3136 3137 3136 3135 3135 3137 3135 3135 3135 3134 3133 3130 3129 3129 3127 3125 3122 3117 3113 3110 3109 3107 3105 3102 3099 3095 3091
3112 3114 3116 3119 3121 3125 3127 3129 3130 3131 3130 3132 3130 3130 3131 3132 3132 3133 3134 3134 3134 3134 3134 3134 3135 3134 3134 3133 3131 3129 3128 3128 3127 3123 3121 3116 3109 3108 3107 3104 3103 3101 3098 3094 3090
3108 3111 3113 3114 3120 3121 3123 3126 3127 3130 3129 3129 3127 3127 3127 3129 3131 3131 3131 3134 3133 3133 3133 3133 3133 3133 3133 3132 3131 3129 3127 3126 3124 3123 3122 3118 3113 3106 3103 3101 3100 3099 3096 3093 3090
3102 3105 3108 3111 3114 3117 3121 3124 3125 3129 3127 3126 3124 3124 3125 3128 3128 3128 3129 3130 3131 3132 3134 3133 3132 3131 3131 3131 3130 3129 3127 3123 3122 3121 3121 3119 3118 3106 3104 3101 3098 3098 3096 3093 3089
3097 3101 3104 3106 3110 3114 3117 3120 3124 3129 3123 3119 3119 3121 3124 3124 3126 3126 3128 3130 3130 3130 3130 3130 3130 3130 3130 3129 3129 3128 3127 3121 3120 3120 3121 3119 3119 3107 3104 3103 3099 3096 3094 3092 3089
3091 3095 3099 3102 3107 3109 3112 3117 3122 3120 3119 3118 3116 3118 3121 3123 3125 3125 3126 3128 3129 3130 3128 3128 3128 3128 3128 3128 3128 3127 3125 3123 3124 3123 3123 3118 3117 3106 3103 3100 3098 3096 3094 3091 3088
3085 3089 3092 3097 3102 3105 3107 3112 3112 3110 3114 3114 3115 3117 3118 3121 3123 3123 3124 3126 3127 3127 3128 3126 3126 3126 3127 3128 3128 3126 3126 3126 3133 3129 3120 3116 3111 3106 3104 3100 3097 3095 3094 3091 3089
3078 3082 3086 3091 3096 3100 3103 3103 3102 3107 3108 3111 3113 3115 3116 3118 3121 3122 3122 3123 3124 3125 3128 3126 3125 3125 3125 3125 3127 3125 3126 3127 3125 3124 3122 3112 3108 3106 3103 3100 3096 3094 3093 3091 3088
3072 3076 3080 3084 3089 3094 3095 3093 3097 3102 3104 3107 3109 3111 3113 3115 3118 3120 3120 3121 3122 3123 3123 3124 3125 3123 3123 3124 3125 3124 3126 3125 3125 3128 3128 3112 3108 3105 3103 3100 3097 3094 3092 3091 3089
3063 3067 3072 3077 3081 3085 3082 3085 3092 3098 3101 3105 3105 3106 3109 3111 3114 3117 3119 3120 3121 3121 3121 3122 3124 3123 3122 3122 3121 3122 3122 3123 3124 3124 3124 3125 3108 3105 3103 3100 3097 3095 3093 3091 3090
3051 3057 3063 3068 3074 3070 3072 3079 3087 3091 3095 3099 3101 3103 3105 3107 3110 3113 3116 3117 3118 3118 3119 3120 3120 3119 3120 3119 3119 3119 3119 3121 3122 3122 3121 3120 3107 3103 3103 3101 3098 3096 3094 3091 3089
3037 3046 3051 3059 3059 3058 3065 3071 3078 3086 3090 3093 3097 3098 3101 3103 3107 3108 3112 3114 3114 3116 3116 3117 3117 3117 3115 3117 3115 3115 3117 3118 3119 3119 3116 3117 3104 3102 3101 3101 3098 3095 3093 3091 3089
3029 3034 3041 3045 3045 3051 3057 3063 3070 3078 3084 3087 3090 3094 3097 3098 3101 3103 3108 3110 3111 3113 3114 3113 3114 3114 3113 3113 3113 3114 3115 3115 3115 3114 3110 3102 3098 3100 3101 3099 3097 3094 3092 3091 3089
3017 3019 3024 3027 3033 3041 3051 3056 3063 3068 3075 3079 3082 3087 3091 3094 3096 3098 3104 3105 3107 3110 3110 3111 3108 3109 3109 3109 3108 3108 3109 3110 3107 3107 3103 3096 3093 3092 3095 3094 3092 3090 3089 3088 3087
3006 3011 3016 3023 3030 3039 3042 3043 3052 3061 3066 3071 3074 3082 3085 3089 3093 3094 3097 3101 3103 3105 3105 3106 3104 3104 3103 3104 3104 3101 3102 3101 3099 3098 3093 3092 3085 3090 3089 3088 3088 3087 3087 3086 3085
2995 3002 3010 3014 3018 3027 3025 3036 3044 3053 3059 3063 3070 3075 3077 3085 3088 3090 3091 3094 3096 3099 3101 3102 3101 3100 3098 3099 3098 3094 3091 3091 3090 3089 3089 3085 3083 3082 3084 3084 3085 3086 3085 3084 3083